Helicity
37 35 46 37 37 33 31 34 33 34 42 47 31 7 -7 -14 -20 -26 -31 -36 -35 -34 -30 -24 -32 -34 18 11 4 56 57 35 40 49 40 35 46 58 41 70 85 138 124 108 120 71 68
45 49 44 44 43 36 35 33 34 35 45 54 49 25 3 -9 -17 -23 -31 -29 -25 -28 -23 -12 -12 -9 29 17 44 67 53 44 53 59 52 60 65 70 72 100 127 149 112 91 69 67 91
46 45 51 45 44 41 39 35 36 37 40 53 56 41 24 3 -13 -18 -20 -20 -15 -14 -10 -3 3 26 43 30 49 70 79 69 80 81 64 74 82 94 102 91 148 145 105 92 84 121 117
53 53 54 54 47 45 40 39 36 35 42 51 63 52 35 16 0 -15 -17 -7 2 10 8 0 16 35 28 42 53 60 80 49 59 76 89 74 85 91 127 100 113 132 155 167 178 133 102
57 57 55 54 52 48 44 38 34 31 31 39 53 62 51 33 12 -1 -14 -9 23 34 30 5 29 39 15 33 53 52 96 67 60 77 72 90 89 100 106 133 143 170 209 242 170 190 136
55 61 53 54 53 48 50 47 40 36 35 35 41 53 58 47 24 9 1 13 66 43 29 22 30 20 25 39 53 71 73 82 74 73 108 115 119 121 135 157 179 227 248 255 317 202 180
45 62 66 58 54 51 50 50 49 46 42 37 40 43 56 49 41 8 1 15 22 22 42 16 31 22 29 29 59 53 74 82 80 106 101 109 126 142 122 187 184 220 276 282 255 141 174
35 41 77 80 63 59 56 56 52 53 50 46 45 47 58 56 38 1 11 19 14 28 3 3 15 16 30 44 15 36 76 51 75 77 94 108 127 111 108 142 171 211 237 210 118 118 148
57 39 31 64 71 66 61 65 64 59 55 60 59 60 67 63 12 15 3 2 13 36 28 4 16 14 20 48 18 22 78 63 54 53 85 134 110 67 125 100 121 180 204 168 165 70 113
54 37 23 27 43 58 49 50 59 66 64 68 70 71 73 81 32 -4 16 -5 7 25 55 44 24 19 33 44 19 41 48 56 45 52 39 56 61 84 104 136 134 124 146 155 120 104 131
121 113 117 94 78 83 91 67 50 49 52 68 87 80 71 27 11 27 6 3 10 26 92 38 37 25 38 39 24 35 52 64 50 52 82 36 48 42 70 113 149 135 146 119 108 124 108
113 110 105 110 110 103 99 92 92 68 63 69 75 91 77 38 40 29 20 20 32 77 58 63 51 39 46 56 42 50 50 59 62 55 71 91 50 68 99 106 134 97 121 109 100 109 117
79 91 94 92 92 83 87 94 103 89 84 79 73 111 43 47 43 40 40 46 87 99 60 71 48 58 57 56 52 60 53 48 69 78 66 44 43 49 82 70 83 36 34 41 52 78 121
83 77 73 78 77 78 73 81 82 92 102 94 99 95 43 49 54 61 72 98 132 78 66 90 85 70 67 75 63 63 67 68 73 90 85 79 34 56 80 80 75 63 77 86 94 109 118
91 103 102 104 105 95 100 104 107 108 106 89 94 53 64 64 63 91 144 176 108 84 89 84 74 78 81 80 77 74 65 86 59 72 79 87 49 57 77 88 91 71 67 97 114 111 102
123 115 109 110 120 151 165 152 130 118 119 122 26 61 76 103 111 147 206 171 169 112 107 101 85 96 102 83 82 81 74 88 77 85 92 82 87 61 42 69 75 79 98 79 74 75 91
86 97 110 105 103 116 138 170 184 189 209 131 75 105 135 161 172 241 210 171 137 114 117 118 135 159 115 101 101 122 109 99 132 120 122 120 124 65 82 99 102 82 79 127 112 132 124
94 87 87 99 110 132 134 143 141 162 235 122 103 107 161 192 221 238 228 184 163 144 145 135 159 138 131 118 146 133 121 107 136 151 138 103 160 133 90 108 85 101 108 150 105 53 173
92 87 106 91 78 89 123 151 168 159 158 83 122 118 165 232 191 222 246 231 217 211 174 153 155 134 135 136 138 117 122 123 156 158 153 115 164 130 95 118 103 95 124 177 155 196 192
66 73 79 82 64 71 65 100 133 152 151 72 102 120 144 215 247 234 232 180 183 214 182 183 201 195 198 183 167 199 163 118 102 120 137 153 226 203 179 153 172 113 153 223 193 176 190
58 62 60 67 69 64 63 78 121 159 155 55 88 106 159 145 172 170 211 231 220 225 205 220 234 176 190 196 208 203 195 181 159 159 184 204 211 210 154 128 150 135 109 180 213 257 220
40 42 43 50 59 63 69 92 110 154 180 106 141 143 162 138 140 143 159 174 175 171 139 166 173 174 178 170 178 131 147 140 163 204 224 220 229 220 211 136 145 169 100 140 189 194 135
33 26 12 32 48 38 56 53 94 135 144 142 145 151 131 131 160 172 146 161 210 217 137 192 253 176 159 143 130 127 152 158 177 209 246 304 272 260 204 188 153 177 152 178 166 192 169
62 34 27 16 29 39 43 45 55 75 86 88 107 133 159 155 152 146 181 140 128 120 120 112 99 101 200 102 46 69 106 126 194 243 323 345 354 303 243 232 207 195 191 149 152 127 137
70 71 72 51 30 29 31 43 50 47 56 77 61 123 141 123 121 105 92 120 125 96 84 84 71 73 74 114 118 82 140 108 139 193 294 359 422 345 307 282 235 207 166 203 226 123 124
85 80 76 84 80 46 32 19 25 27 26 59 72 65 116 127 51 89 111 135 89 80 59 74 106 73 144 163 206 205 201 192 191 230 309 398 477 367 456 369 240 177 143 135 205 231 114
94 87 85 85 75 74 58 18 24 24 16 63 73 75 108 111 67 128 150 171 156 139 55 36 58 136 142 202 237 255 239 313 274 321 320 340 369 294 318 320 296 274 179 194 263 158 158
88 83 83 78 73 67 58 53 20 27 28 62 86 72 103 119 106 93 61 69 61 83 98 92 54 32 77 190 250 218 265 258 237 230 354 310 347 401 354 337 263 218 303 273 192 139 165
66 69 71 76 70 71 61 45 40 17 32 46 129 103 136 151 174 124 110 140 197 117 94 151 173 156 217 257 242 284 334 399 307 235 264 299 364 345 392 426 303 129 74 110 164 140 159
Wind_Speed
33 35 37 38 41 44 46 47 48 49 51 53 51 49 49 49 48 47 44 42 38 34 35 40 48 50 41 43 42 36 36 39 42 46 52 54 58 53 60 52 48 43 38 29 22 17 15
34 36 38 40 42 45 47 49 51 52 53 54 52 49 51 51 50 49 47 42 37 32 29 35 42 42 39 42 35 34 35 37 39 44 45 48 49 46 46 48 49 41 33 28 26 20 18
34 37 40 42 44 46 48 50 51 53 54 55 54 51 51 52 52 50 46 41 35 29 26 29 36 37 34 33 33 31 32 34 35 37 39 38 40 46 44 46 41 38 41 43 31 35 30
36 38 41 43 45 47 49 50 52 53 54 55 55 54 53 53 53 52 48 40 33 28 25 26 33 33 30 29 29 27 29 32 31 28 30 29 33 38 39 36 42 47 44 58 41 31 32
37 40 42 44 46 48 50 51 53 54 55 56 56 56 55 55 53 53 53 40 28 27 24 25 30 31 30 31 31 29 26 33 35 33 29 28 33 36 40 48 51 50 59 53 48 30 26
39 41 43 45 46 48 50 52 53 55 57 57 58 58 56 55 53 53 53 44 32 32 27 27 28 33 28 36 33 32 30 31 36 36 38 36 36 38 41 51 61 55 55 49 44 36 26
40 43 45 46 47 49 51 52 54 56 57 58 59 59 58 57 54 53 49 40 42 35 30 24 29 30 31 33 31 33 35 38 38 42 44 40 41 37 36 36 36 38 42 41 35 25 32
40 43 46 48 49 50 52 53 55 56 58 59 60 60 60 58 53 50 45 43 41 36 39 22 19 21 25 33 38 36 35 42 44 45 44 45 37 35 34 31 36 38 40 42 37 38 37
44 47 49 52 52 53 54 55 56 58 59 61 62 62 62 60 49 45 45 44 41 37 35 29 26 29 32 33 36 38 35 42 43 45 47 43 37 38 37 37 44 43 39 44 39 37 37
49 51 52 54 55 55 56 57 58 60 62 63 64 64 64 62 41 47 43 47 43 41 38 27 29 30 33 35 36 34 34 41 43 47 50 40 43 45 43 41 45 46 43 40 30 42 49
50 53 56 57 58 58 59 61 62 63 64 65 66 67 65 52 47 45 45 47 44 40 45 28 27 29 33 36 41 37 35 40 43 45 47 46 49 55 50 50 45 36 36 35 35 40 42
53 54 56 59 60 62 62 63 64 65 67 68 69 69 66 46 45 42 45 44 42 42 42 32 30 35 42 37 38 38 39 38 40 46 40 35 40 43 46 46 40 35 46 41 40 41 46
53 55 57 59 60 62 63 65 67 68 70 71 72 72 58 45 49 45 44 43 48 42 39 36 36 38 44 43 44 40 47 49 49 56 55 52 44 45 45 59 46 64 63 53 50 51 44
56 58 60 62 64 66 67 68 69 71 73 74 75 71 49 45 42 42 41 44 49 42 42 43 44 45 49 43 41 43 46 49 39 43 50 55 57 51 49 52 51 55 55 56 55 50 40
59 61 62 62 64 66 67 69 73 74 76 77 75 58 50 43 42 39 40 49 48 44 44 44 48 52 45 40 44 48 43 45 36 32 47 50 49 43 44 45 46 52 55 43 42 35 40
58 60 63 64 65 67 69 71 74 76 77 77 62 57 49 42 37 36 42 48 48 41 44 47 51 41 49 46 47 47 46 38 37 30 32 40 54 40 44 45 41 45 43 54 53 52 48
59 61 62 63 65 66 66 69 73 75 77 69 56 56 44 40 36 39 48 51 53 46 40 43 46 46 41 49 43 44 39 40 31 27 30 33 38 45 46 43 47 48 48 46 46 42 44
59 61 61 60 61 65 69 71 72 72 74 56 54 56 47 40 43 44 51 52 51 49 41 45 46 47 51 51 51 45 41 35 27 26 35 29 36 45 41 35 32 34 41 42 56 53 43
59 61 62 61 63 66 69 71 71 69 66 59 55 52 45 39 57 58 59 58 55 55 53 52 56 51 49 50 55 45 45 44 28 30 34 26 38 58 54 41 36 39 37 35 37 36 40
59 59 61 63 65 65 67 69 71 70 67 57 53 59 51 46 50 60 68 73 72 61 65 60 60 53 56 61 53 56 53 49 38 39 36 31 40 40 45 48 48 47 39 35 38 34 36
57 58 60 62 63 63 65 68 70 71 69 46 49 55 54 62 57 58 58 64 70 67 55 53 54 53 57 60 58 58 59 61 53 46 40 41 56 50 45 47 52 45 33 38 27 25 28
56 56 58 60 62 63 64 66 68 70 65 45 54 57 57 62 63 65 64 65 66 66 64 67 68 73 66 67 69 89 74 66 66 48 44 48 64 57 66 61 57 53 44 41 33 30 23
55 56 55 59 61 61 65 63 65 66 58 48 50 50 54 59 59 61 58 60 58 66 65 57 65 79 79 79 82 78 86 83 68 61 57 54 56 62 77 63 69 66 44 43 37 30 35
59 59 59 58 60 61 61 62 62 62 56 49 50 53 54 64 60 61 70 79 80 76 80 83 81 80 66 80 87 82 78 77 66 53 46 52 53 57 74 66 80 64 51 42 40 43 30
61 63 64 61 59 60 61 61 59 58 57 52 49 52 57 69 66 77 79 79 83 87 93 95 87 77 76 82 88 91 86 88 72 59 50 45 50 65 72 73 85 84 65 52 47 56 34
63 65 67 68 68 65 62 62 61 61 54 52 52 46 53 70 67 62 63 71 85 88 87 80 67 72 70 68 70 90 85 74 70 57 50 48 56 60 65 76 90 64 56 41 40 65 45
66 67 69 70 70 70 69 66 62 61 55 52 52 46 54 66 73 60 64 67 71 78 85 83 74 71 70 71 81 88 97 72 92 84 68 57 57 66 69 79 84 62 53 40 62 73 39
69 70 71 71 71 72 72 70 65 61 57 56 58 48 56 68 79 77 73 70 66 69 85 81 98 73 69 76 79 81 89 81 88 81 75 73 71 71 66 77 96 49 43 54 56 46 37
70 71 73 74 75 74 72 71 68 65 61 58 64 56 54 67 76 82 78 78 76 77 84 77 77 84 69 75 71 71 87 81 88 111 71 90 76 81 71 77 61 45 48 47 50 48 37
Wind_Direction
357 354 349 347 347 347 344 341 338 336 335 334 330 331 335 342 347 348 350 352 356 2 7 11 6 4 32 28 31 49 51 45 43 40 32 32 29 33 28 30 31 33 29 26 5 338 318
349 350 347 345 343 342 342 342 339 336 334 333 329 325 329 336 342 343 344 353 2 11 16 14 12 18 27 23 45 50 49 45 43 36 36 36 33 36 35 33 32 30 19 9 18 12 5
342 344 344 345 343 341 341 340 337 335 336 333 331 325 322 324 337 348 355 360 9 18 26 23 17 24 27 33 47 52 48 43 44 41 38 42 41 33 32 30 34 27 26 19 30 20 12
339 342 342 340 343 342 340 338 336 334 333 333 330 327 326 324 326 338 353 7 17 26 35 33 23 27 30 47 47 46 46 38 43 49 42 43 42 32 36 32 29 27 30 19 19 24 20
335 338 339 341 340 341 341 340 337 334 332 331 330 327 324 324 323 320 322 6 30 30 42 37 28 30 31 41 36 45 53 36 32 38 40 42 36 32 28 23 24 27 16 14 20 28 28
332 334 335 337 339 339 338 337 336 334 333 331 330 327 323 319 319 317 312 360 24 20 38 40 35 23 37 24 34 37 48 40 32 29 31 37 34 25 25 20 14 13 14 17 9 28 25
336 335 335 337 338 338 337 336 335 333 331 330 327 325 323 319 315 323 344 4 357 5 17 22 19 17 25 29 35 38 36 30 31 27 23 28 22 21 20 22 17 15 13 8 6 17 22
340 340 336 338 338 335 334 333 332 331 329 327 326 324 321 318 318 339 356 357 0 3 354 22 35 29 30 27 17 27 37 23 21 20 23 22 26 30 26 21 17 15 13 17 23 30 24
337 337 336 335 336 332 329 328 328 327 326 324 323 323 321 319 330 351 352 354 359 6 355 358 14 12 18 24 15 19 33 21 18 19 19 22 27 24 30 24 19 19 24 23 22 22 42
333 335 335 334 329 326 323 324 323 323 322 322 321 321 320 318 347 342 346 343 349 356 348 353 358 6 13 14 8 21 26 19 17 15 15 23 25 23 24 23 25 20 28 20 21 32 36
336 335 333 331 330 327 323 318 316 316 316 317 319 319 321 333 334 339 340 340 346 348 331 356 357 8 4 360 356 6 18 12 6 7 14 17 17 13 17 21 24 22 14 17 39 41 42
332 332 333 332 326 322 319 320 319 317 313 312 314 315 319 334 334 337 339 342 343 335 325 343 350 348 346 351 352 358 3 7 4 0 8 9 14 19 20 16 23 21 23 35 38 40 39
333 330 329 329 330 325 322 319 318 316 314 313 308 312 321 330 320 332 336 335 325 321 335 332 337 339 338 337 339 346 345 346 347 347 354 359 9 15 19 13 24 13 19 24 26 27 33
331 329 326 325 323 321 319 317 317 314 311 311 309 311 322 322 326 327 328 326 313 320 319 325 326 329 327 333 337 341 340 341 349 354 351 352 353 5 12 14 16 18 25 23 15 18 22
326 325 324 325 324 324 322 318 314 312 310 308 308 316 318 321 318 322 320 308 308 316 320 320 322 321 325 331 333 336 339 338 347 357 348 348 352 3 9 14 19 15 13 27 22 28 23
328 327 324 322 322 322 321 320 315 311 308 303 315 316 314 318 320 317 308 302 307 315 315 314 313 319 317 323 326 331 333 341 344 353 359 353 342 1 5 9 17 14 21 10 14 11 13
330 328 327 326 324 324 325 323 321 316 310 309 314 311 316 317 316 309 299 301 306 309 311 309 310 311 315 320 322 325 331 334 341 352 355 356 351 350 356 3 1 5 7 15 16 13 9
332 331 330 331 331 328 325 322 320 320 317 321 313 304 313 311 302 305 300 303 306 306 310 306 308 306 307 312 314 315 317 323 337 342 339 345 344 341 350 2 12 14 7 9 359 359 1
331 329 331 329 328 328 327 325 323 321 321 316 311 307 313 310 295 294 299 300 303 301 299 302 301 303 308 307 309 309 314 322 322 323 330 339 335 330 337 351 1 0 4 6 10 11 357
333 332 330 329 329 329 329 327 326 323 318 314 311 304 307 305 301 298 297 295 295 301 298 298 299 301 300 299 300 304 310 317 317 314 318 323 319 318 320 327 336 338 347 351 353 357 360
334 335 334 335 334 334 332 331 328 325 319 315 309 305 306 301 302 301 301 298 296 299 302 304 302 300 299 298 300 299 304 306 309 309 309 309 307 309 308 313 319 321 318 330 327 330 339
332 333 335 335 334 334 334 333 333 330 325 317 309 308 309 302 302 300 298 298 297 296 296 295 295 296 298 294 295 293 299 302 300 304 302 304 304 308 306 310 312 311 314 316 312 320 311
331 331 331 331 332 331 330 331 332 333 335 324 320 315 311 304 305 303 301 300 302 304 298 298 301 296 293 293 293 295 294 293 294 293 294 296 298 303 301 310 309 305 307 311 318 323 331
327 325 325 325 325 327 328 329 331 332 337 331 322 316 310 302 302 300 298 293 293 295 294 294 296 295 298 303 298 295 293 293 291 287 285 288 291 297 300 306 297 307 314 317 309 315 313
323 321 321 321 322 323 325 325 327 329 331 331 328 319 309 301 302 298 296 297 296 294 291 291 295 297 302 298 294 292 290 291 289 283 270 276 284 291 292 293 297 296 305 305 303 308 307
323 320 318 316 316 317 318 320 320 320 323 326 324 324 314 304 304 307 303 303 300 299 299 296 304 306 304 295 290 285 287 292 293 299 299 277 283 276 287 291 292 307 313 313 313 297 313
320 318 317 317 317 315 314 314 316 318 317 318 317 318 310 305 304 306 302 306 307 303 298 301 305 304 308 293 287 282 282 290 282 283 288 291 283 274 278 284 291 293 304 311 296 301 308
319 318 317 316 315 315 314 313 310 312 313 313 311 312 306 302 300 298 299 302 306 301 297 301 302 303 296 288 289 287 284 282 281 279 279 277 281 280 281 282 286 295 296 284 299 309 306
320 319 316 314 313 312 312 312 309 306 306 307 305 308 303 298 296 300 297 296 295 296 296 297 293 294 299 297 294 295 285 288 285 280 278 273 270 277 273 279 288 292 291 296 302 301 300